Weather History for KTCL - April, 2013

Change the Weather History Date:

Wednesday, April 3, 2013

  Actual Average Record
Temperature  
Mean Temperature 50 °F 60 °F  
Max Temperature 53 °F 73 °F 86 °F (1963)
Min Temperature 47 °F 47 °F 30 °F (1992)
Degree Days  
Heating Degree Days 15 6  
Month to date heating degree days 20 19  
Since 1 July heating degree days 2286 2403  
Moisture  
Dew Point 39 °F    
Average Humidity 69    
Maximum Humidity 93    
Minimum Humidity 44    
Precipitation  
Precipitation 0.43 in 0.14 in 1.05 in (1966)
Month to date precipitation 0.43 0.43  
Year to date precipitation 15.95 15.64  
Sea Level Pressure  
Sea Level Pressure 30.10 in    
Wind  
Wind Speed 10 mph (NE)    
Max Wind Speed 18 mph    
Max Gust Speed 23 mph    
Visibility 6 miles    
Events Rain    
T = Trace of Precipitation, MM = Missing Value Source: NWS Daily Summary

Daily Weather History Graph

Daily Weather History Graph

Search for Another Location

Airport or City:

Trip Planner

Search our weather history database for the weather conditions in past years. The results will help you decide how hot, cold, wet, or windy it might be!

Date:

Astronomy

Apr. 03, 2013 Rise Set
Actual Time 6:35 AM CDT 7:12 PM CDT
Civil Twilight 6:10 AM CDT 7:37 PM CDT
Nautical Twilight 5:40 AM CDT 8:06 PM CDT
Astronomical Twilight 5:10 AM CDT 8:37 PM CDT
Moon 1:56 AM CDT (4/3) 12:43 PM CDT (4/3)
Length of Visible Light 13h 27m
Length of Day
12h 37m
Last Quarter, 44% of the Moon is Illuminated
Apr 3
Last Quarter
Apr 10
New
Apr 18
First Quarter
Apr 25
Full
May 2
Last Quarter

Hourly Weather History & Observations

Time (CDT) Temp. Windchill Dew Point Humidity Pressure Visibility Wind Dir Wind Speed Gust Speed Precip Events Conditions
12:53 AM 51.1 °F - 30.0 °F 44% 30.13 in 10.0 mi NE 9.2 mph - N/A   Clear
1:53 AM 50.0 °F - 30.9 °F 48% 30.09 in 10.0 mi NE 8.1 mph - N/A   Clear
2:53 AM 50.0 °F - 30.9 °F 48% 30.11 in 10.0 mi NNE 10.4 mph - N/A   Clear
3:53 AM 48.9 °F - 30.9 °F 50% 30.09 in 10.0 mi NE 13.8 mph - N/A   Clear
4:53 AM 48.9 °F - 30.9 °F 50% 30.10 in 10.0 mi NE 8.1 mph - N/A   Mostly Cloudy
5:53 AM 48.9 °F - 30.9 °F 50% 30.10 in 10.0 mi NE 11.5 mph - N/A   Clear
6:53 AM 48.9 °F - 30.0 °F 48% 30.12 in 10.0 mi NNE 9.2 mph - N/A   Clear
7:53 AM 50.0 °F - 30.9 °F 48% 30.14 in 10.0 mi NE 11.5 mph - N/A   Mostly Cloudy
8:53 AM 51.1 °F - 32.0 °F 48% 30.13 in 10.0 mi NE 12.7 mph - N/A   Overcast
9:53 AM 52.0 °F - 32.0 °F 47% 30.15 in 10.0 mi ENE 8.1 mph - N/A   Overcast
10:53 AM 52.0 °F - 32.0 °F 47% 30.16 in 10.0 mi ENE 9.2 mph - N/A   Overcast
11:53 AM 53.1 °F - 33.1 °F 47% 30.14 in 10.0 mi NNE 11.5 mph - N/A   Overcast
12:53 PM 53.1 °F - 36.0 °F 52% 30.14 in 10.0 mi ENE 6.9 mph - 0.00 in Rain Light Rain
1:53 PM 53.1 °F - 37.9 °F 57% 30.11 in 10.0 mi NNE 11.5 mph - 0.00 in Rain Light Rain
2:53 PM 50.0 °F - 39.9 °F 68% 30.09 in 4.0 mi NNE 10.4 mph - 0.01 in Rain Light Rain
3:53 PM 48.0 °F - 42.1 °F 80% 30.10 in 3.0 mi North 11.5 mph - 0.04 in Rain Rain
4:53 PM 46.9 °F - 43.0 °F 86% 30.08 in 2.5 mi NNE 13.8 mph - 0.13 in Rain Rain
5:08 PM 46.4 °F 40.1 °F 44.6 °F 93% 30.08 in 3.0 mi North 15.0 mph 23.0 mph 0.03 in Rain Rain
5:17 PM 46.4 °F 40.4 °F 44.6 °F 93% 30.08 in 2.0 mi NNE 13.8 mph - 0.05 in Rain Rain
5:53 PM 48.0 °F - 44.1 °F 86% 30.08 in 2.5 mi NE 15.0 mph - 0.16 in Rain Light Rain
6:02 PM 48.2 °F - 44.6 °F 87% 30.08 in 3.0 mi NNE 12.7 mph - 0.01 in Rain Light Rain
6:53 PM 48.9 °F - 45.0 °F 86% 30.08 in 3.0 mi NE 12.7 mph - 0.05 in Rain Light Rain
7:53 PM 48.9 °F - 46.0 °F 90% 30.07 in 8.0 mi NE 9.2 mph - 0.00 in   Overcast
8:53 PM 50.0 °F - 46.0 °F 86% 30.08 in 3.0 mi ENE 9.2 mph 16.1 mph 0.00 in Rain Light Rain
9:24 PM 50.0 °F - 46.4 °F 87% 30.09 in 3.0 mi ENE 9.2 mph - 0.00 in Rain Light Rain
9:37 PM 50.0 °F - 46.4 °F 87% 30.09 in 2.0 mi NE 8.1 mph - 0.01 in Rain Light Rain
9:50 PM 50.0 °F - 46.4 °F 87% 30.09 in 3.0 mi ENE 6.9 mph - 0.02 in Rain Light Rain
9:53 PM 50.0 °F - 46.9 °F 89% 30.08 in 3.0 mi NE 9.2 mph - 0.02 in Rain Light Rain
10:35 PM 50.0 °F - 46.4 °F 87% 30.08 in 3.0 mi NE 5.8 mph - 0.00 in Rain Light Rain
10:53 PM - - - N/A% 30.08 in 3.0 mi NE 8.1 mph - 0.00 in Rain Light Rain
11:53 PM 50.0 °F - 48.0 °F 93% 30.07 in 4.0 mi ENE 5.8 mph - 0.02 in Rain Light Rain